Weather Roundup
Issued by NWS Chicago, IL

Home | Current Version | Previous Version | Text Only | Print | Product List | Glossary On
Versions: 1 2 3 4 5 6 7 8 9 10 11 12 13 14 15 16 17 18 19 20 21 22 23 24 25 26 27 28 29 30 31 32 33 34 35 36 37 38 39 40 41 42 43 44 45 46 47 48 49 50
000
NZUS59 KLOT 121408
HRRLOT

CHICAGO AREA WEATHER ROUNDUP
NATIONAL WEATHER SERVICE CHICAGO/ROMEOVILLE IL
800 AM CST FRI FEB 12 2016

NOTE: "FAIR" INDICATES FEW OR NO CLOUDS BELOW 12,000 FEET WITH NO
SIGNIFICANT WEATHER AND/OR OBSTRUCTIONS TO VISIBILITY.

* THESE STATIONS ARE NOT UNDER NWS QUALITY CONTROL. THEY ALSO MAY NOT
  REPORT WEATHER SUCH AS PRECIPITATION OR FOG.

ILZ005-006-012>014-019>023-121500-
NORTHEAST ILLINOIS

CITY           SKY/WX    TMP DP  RH WIND       PRES   REMARKS
OHARE          CLOUDY    19   9  65 W14       30.13S WCI   6
MIDWAY         CLOUDY    21   7  54 W12       30.15S WCI   9
AURORA         CLOUDY    20  12  71 W13       30.16R WCI   7
LANSING*       CLOUDY    21  10  62 W9        30.16R WCI  11
JOLIET*        CLOUDY    22  13  70 W8        30.17S WCI  12
WAUKEGAN       CLOUDY    18   9  68 NW12G18   30.12R WCI   5
DUPAGE AIRPORT CLOUDY    19   9  65 W12       30.13S WCI   7
WHEELING       CLOUDY    19   9  65 W15       30.14S WCI   5
KANKAKEE*      PTSUNNY   23  17  80 W9        30.18S WCI  13
MORRIS*        CLOUDY    21  14  73 W13       30.15S WCI   9
LEWIS AIRPORT* CLOUDY    19  12  72 W8        30.16S WCI   9
$$

WIZ051-052-058>065-066-070>072-121500-
SOUTHEAST WISCONSIN

CITY           SKY/WX    TMP DP  RH WIND       PRES   REMARKS
MILWAUKEE      PTSUNNY   16   3  56 NW12      30.13R WCI   3
KENOSHA*       CLOUDY    18   7  62 NW16      30.12R WCI   3
RACINE*        CLOUDY    17   3  54 NW14      30.13R WCI   3
BURLINGTON     CLOUDY    15   6  68 NW14      30.13S WCI   0
WAUKESHA       CLOUDY    12   3  67 W17       30.13R WCI  -5
WEST BEND      MOCLDY    14   5  67 CALM      30.10S
$$

INZ001>003-010>013-019-020-121500-
NORTHWEST INDIANA

CITY           SKY/WX    TMP DP  RH WIND       PRES   REMARKS
GARY*          CLOUDY    23   9  54 W17       30.16  WCI   9
MICHIGAN CITY* NOT AVBL
RENSSELAER*    NOT AVBL
VALPARAISO     CLOUDY    20  13  74 W12       30.14S WCI   8
$$

LMZ740>746-121500-
SOUTHERN LAKE MICHIGAN

STATION/POSITION TIME  SKY/WX   TEMP WIND        PRES    VSBY
                                AIR  DIR/SP/G
                 (UTC)          (F)  (DEG/KT/KT) (MB)    (MI)
HARRISON CRIB    1300            22  270/ 20/ 23   N/A
BURNHAM HARBOR   1400            21  260/  9/ 14   N/A
CALUMET HARBOR   1300            20  230/  8/ 11 1019.9F
BURNS HARBOR     1300            20  220/  9/ 14 1021.3F
MICHIGAN CITY    1300            22  240/ 22/ 24   N/A
$$

ABBREVIATIONS USED IN REMARKS
   TC - TEMPERATURE IN CELSIUS
  WCI - WIND CHILL INDEX
   HX - HEAT INDEX
  VSB - VISIBILITY
$$



USA.gov is the U.S. government's official web portal to all federal, state and local government web resources and services.